weather.gov     
National Weather Service

Regional Weather Roundup
NWS Homepage
This page is being discontinued on March 12, 2014.
The same data is available at this site. Please update your bookmarks.
Thank you, and we apologize for the inconvenience.
Please send an email to SR-SRH.Webmaster@noaa.gov with any concerns.


Current Version
Previous Version:    01  02  03  04  05  06  07  08  09  10  11  12  13  14  15  16  17  18  19  20  21  22  23  24  25  26  27  28  29  30  
   31  32  33  34  35  36  37  38  39  40  41  42  43  44  45  46  47  48  49  50  51  52  53  54  55  56  57  58  59  60  
[Printable]
478
ASUS43 KBIS 260720
RWRND

NORTH DAKOTA REGIONAL WEATHER ROUNDUP
NATIONAL WEATHER SERVICE BISMARCK ND
200 AM CDT SUN OCT 26 2014

NOTE: "FAIR" INDICATES FEW OR NO CLOUDS BELOW 12,000 FEET WITH NO
SIGNIFICANT WEATHER AND/OR OBSTRUCTIONS TO VISIBILITY.


NDZ001>003-009>011-017-260800-
NORTHWEST NORTH DAKOTA

CITY           SKY/WX    TMP DP  RH WIND       PRES   REMARKS
WILLISTON      MOCLDY    53  30  41 SE10      29.68F
MINOT          PTCLDY    41  30  65 SE5       29.82F
MINOT AFB      PTCLDY    37  32  84 SE8       29.80F
$$

NDZ018>021-031>035-040>046-260800-
SOUTHWEST NORTH DAKOTA

CITY           SKY/WX    TMP DP  RH WIND       PRES   REMARKS
BISMARCK       CLEAR     45  32  60 E12       29.86F
DICKINSON      PTCLDY    50  30  46 SE18      29.69F
GARRISON         N/A     46  32  58 SE8       29.81F
HETTINGER ARPT PTCLDY    49  31  49 E13       29.75F
$$

NDZ004>008-012>016-024-026-027-054-260800-
NORTHEAST NORTH DAKOTA

CITY           SKY/WX    TMP DP  RH WIND       PRES   REMARKS
GRAND FORKS    CLEAR     34  24  67 S5        29.97F
GRND FRKS AFB  PTCLDY    33  25  71 CALM      29.97F
DEVILS LAKE    CLEAR     43  28  56 SE7       29.91F
$$

NDZ022-023-025-028>030-036>039-047>053-260800-
SOUTHEAST NORTH DAKOTA

CITY           SKY/WX    TMP DP  RH WIND       PRES   REMARKS
FARGO          PTCLDY    38  22  52 SE5       29.99S
JAMESTOWN      CLEAR     39  29  67 SE7       29.93F
$$





U.S. Dept. of Commerce
NOAA National Weather Service
1325 East West Highway
Silver Spring, MD 20910
E-mail: w-nws.webmaster@noaa.gov
Page last modified: May 16, 2007
NATIONAL WEATHER SERVICE: for Safety, for Work, for Fun - FOR LIFE